GW6055 Weather Reports


time (UTC)temp
C
wind
direction
speed
KPH
gust
KPH
rain 1hr
cm
rain 24hr
cm
rain mn
cm
humidity
%
barometer
mb
20260906105654 21 152 0.0 0.0 0.00 0.00 0.00 99 1014.2
20260906105150 21 157 0.0 0.0 0.00 0.00 0.00 99 1014.2
20260906104649 21 155 0.0 0.0 0.00 0.00 0.00 99 1014.0
20260906104148 21 148 0.0 0.0 0.00 0.00 0.00 99 1014.0
20260906103646 21 141 0.0 0.0 0.00 0.00 0.00 99 1013.9
20260906103143 21 141 0.0 0.0 0.00 0.00 0.00 99 1014.0
20260906102643 21 138 0.0 0.0 0.00 0.00 0.00 99 1014.0
20260906102142 21 149 0.0 0.0 0.00 0.00 0.00 99 1014.1
20260906101642 21 148 0.0 0.0 0.00 0.00 0.00 99 1014.0
20260906101137 21 141 0.0 0.0 0.00 0.00 0.00 99 1013.9
20260906100633 21 122 0.0 1.6 0.00 0.00 0.00 99 1013.9
20260906100128 21 132 0.0 1.6 0.00 0.00 0.00 99 1013.9
20260906095627 21 149 0.0 0.0 0.00 0.00 0.00 99 1014.1
20260906095123 21 149 0.0 0.0 0.00 0.00 0.00 99 1014.0
20260906094622 21 160 0.0 1.6 0.00 0.00 0.00 99 1014.1
20260906094118 21 142 0.0 0.0 0.00 0.00 0.00 99 1013.7
20260906093614 22 137 0.0 1.6 0.00 0.00 0.00 99 1013.7
20260906093108 22 141 0.0 0.0 0.00 0.00 0.00 99 1013.4
20260906092603 22 139 0.0 0.0 0.00 0.00 0.00 99 1013.4
20260906092058 22 147 0.0 0.0 0.00 0.00 0.00 99 1013.4
20260906091554 22 147 0.0 0.0 0.00 0.00 0.00 99 1013.6
20260906091051 22 147 0.0 0.0 0.00 0.00 0.00 99 1013.8
20260906090550 22 142 0.0 0.0 0.00 0.00 0.00 99 1013.6
20260906090046 22 142 0.0 0.0 0.00 0.00 0.00 99 1013.6
20260906085544 22 147 0.0 0.0 0.00 0.00 0.00 99 1013.8
20260906085044 22 147 0.0 0.0 0.00 0.00 0.00 99 1014.0
20260906084539 22 148 0.0 0.0 0.00 0.00 0.00 99 1014.0
20260906084037 22 155 0.0 0.0 0.00 0.00 0.00 99 1014.0
20260906083533 22 164 0.0 1.6 0.00 0.00 0.00 99 1014.0
20260906083033 22 148 0.0 0.0 0.00 0.00 0.00 99 1013.8
20260906082528 22 158 1.6 3.2 0.00 0.00 0.00 99 1014.1
20260906082024 22 163 0.0 0.0 0.00 0.00 0.00 99 1014.2
20260906081520 22 156 0.0 0.0 0.00 0.00 0.00 99 1014.1
20260906081015 22 158 0.0 0.0 0.00 0.00 0.00 99 1014.2
20260906080512 22 138 0.0 0.0 0.00 0.00 0.00 99 1014.2
20260906080008 22 157 0.0 1.6 0.00 0.00 0.00 99 1014.3
20260906075501 22 168 1.6 1.6 0.00 0.00 0.00 99 1014.1
20260906074956 22 181 0.0 3.2 0.00 0.00 0.00 99 1014.3
20260906074457 22 198 1.6 1.6 0.00 0.00 0.00 99 1014.2
20260906073955 22 185 1.6 3.2 0.00 0.00 0.00 99 1014.5
20260906073450 22 250 4.8 6.4 0.00 0.00 0.00 99 1014.6
20260906072946 22 168 3.2 4.8 0.00 0.00 0.00 99 1014.8
20260906072441 22 206 1.6 4.8 0.00 0.00 0.00 99 1014.9
20260906071937 22 154 0.0 6.4 0.00 0.00 0.00 99 1014.8
20260906071433 22 256 6.4 11.3 0.00 0.00 0.00 99 1014.7
20260906070929 22 236 1.6 3.2 0.00 0.00 0.00 99 1014.4
20260906070425 22 143 0.0 0.0 0.00 0.00 0.00 99 1013.9
20260906065920 22 145 0.0 0.0 0.00 0.00 0.00 99 1013.3
20260906065414 22 145 0.0 0.0 0.00 0.00 0.00 99 1013.4
20260906064910 22 158 0.0 0.0 0.00 0.00 0.00 99 1013.3
20260906064407 22 145 0.0 0.0 0.00 0.00 0.00 99 1013.6
20260906063906 22 145 0.0 0.0 0.00 0.00 0.00 99 1013.6
20260906063401 22 154 0.0 0.0 0.00 0.00 0.00 99 1013.7
20260906062856 22 155 0.0 0.0 0.00 0.00 0.00 99 1013.9
20260906062355 22 143 0.0 0.0 0.00 0.00 0.00 99 1013.9
20260906061851 22 158 0.0 0.0 0.00 0.00 0.00 99 1014.0
20260906061348 22 158 0.0 0.0 0.00 0.00 0.00 99 1013.8
20260906060842 22 158 0.0 0.0 0.00 0.00 0.00 99 1013.9
20260906060340 22 161 0.0 0.0 0.00 0.00 0.00 99 1013.7
20260906055835 22 162 0.0 0.0 0.00 0.00 0.00 99 1013.7
20260906055331 22 146 0.0 0.0 0.00 0.00 0.00 99 1013.9
20260906054826 22 155 0.0 0.0 0.00 0.00 0.00 99 1013.9
20260906054321 22 158 0.0 0.0 0.00 0.00 0.00 99 1014.0
20260906053818 22 162 0.0 0.0 0.00 0.00 0.00 99 1014.2
20260906053313 22 153 0.0 0.0 0.00 0.00 0.00 99 1014.3
20260906052808 22 151 0.0 0.0 0.00 0.00 0.00 99 1014.3
20260906052306 22 151 0.0 0.0 0.00 0.00 0.00 99 1014.5
20260906051801 22 160 0.0 0.0 0.00 0.00 0.00 99 1014.6
20260906051300 22 155 0.0 0.0 0.00 0.00 0.00 99 1014.6
20260906050756 22 139 0.0 0.0 0.00 0.00 0.00 99 1014.6
20260906050251 22 138 0.0 1.6 0.00 0.00 0.00 99 1014.5
20260906045749 22 154 0.0 0.0 0.00 0.00 0.00 99 1014.4
20260906045244 22 153 0.0 0.0 0.00 0.00 0.00 99 1014.6
20260906044741 22 143 0.0 0.0 0.00 0.00 0.00 99 1014.7
20260906044235 22 145 0.0 0.0 0.00 0.00 0.00 99 1014.7
20260906043732 22 151 0.0 0.0 0.00 0.00 0.00 99 1014.9
20260906043227 22 143 0.0 0.0 0.00 0.00 0.00 99 1014.7
20260906042727 22 143 0.0 0.0 0.00 0.00 0.00 99 1014.8
20260906042226 22 143 0.0 0.0 0.00 0.00 0.00 99 1014.8
20260906041721 22 136 0.0 0.0 0.00 0.00 0.00 99 1014.8
20260906041217 22 132 0.0 1.6 0.00 0.00 0.00 99 1014.8
20260906040712 22 148 0.0 0.0 0.00 0.00 0.00 99 1014.7
20260906040208 22 156 0.0 0.0 0.00 0.00 0.00 99 1014.7
20260906035703 22 150 0.0 0.0 0.00 0.58 0.58 99 1014.8
20260906035159 22 130 0.0 0.0 0.00 0.58 0.58 99 1014.9
20260906034653 22 124 0.0 0.0 0.00 0.58 0.58 99 1014.8
20260906034148 22 131 0.0 1.6 0.00 0.58 0.58 99 1014.7
20260906033644 22 158 0.0 0.0 0.00 0.58 0.58 99 1014.9
20260906033143 22 158 0.0 0.0 0.00 0.58 0.58 99 1014.6
20260906032640 22 158 0.0 0.0 0.00 0.58 0.58 99 1014.7
20260906032140 22 159 0.0 0.0 0.00 0.58 0.58 99 1015.0
20260906031635 22 175 0.0 1.6 0.00 0.58 0.58 99 1014.9
20260906031131 22 154 0.0 0.0 0.00 0.58 0.58 99 1014.8
20260906030630 22 157 0.0 0.0 0.00 0.58 0.58 99 1014.7
20260906030125 22 160 0.0 0.0 0.00 0.58 0.58 99 1014.7
20260906025624 22 160 0.0 0.0 0.00 0.58 0.58 99 1014.6
20260906025124 22 161 0.0 0.0 0.00 0.58 0.58 99 1014.5
20260906024618 22 161 0.0 1.6 0.00 0.58 0.58 99 1014.5
20260906024113 22 151 0.0 0.0 0.00 0.58 0.58 99 1014.4
20260906023609 22 151 0.0 0.0 0.00 0.58 0.58 99 1014.2
20260906023103 23 151 0.0 0.0 0.00 0.58 0.58 99 1014.2
20260906022558 23 148 0.0 0.0 0.00 0.58 0.58 99 1014.1
20260906022054 23 142 0.0 0.0 0.00 0.58 0.58 99 1014.1
20260906021549 23 141 0.0 0.0 0.00 0.58 0.58 99 1014.1
20260906021048 23 141 0.0 1.6 0.00 0.58 0.58 99 1014.2
20260906020542 23 147 0.0 0.0 0.00 0.58 0.58 98 1014.1
20260906020042 23 147 0.0 0.0 0.00 0.58 0.58 98 1014.0
20260906015541 23 145 0.0 0.0 0.00 0.58 0.58 98 1013.9
20260906015035 23 151 0.0 0.0 0.00 0.58 0.58 98 1013.8
20260906014530 23 147 0.0 0.0 0.00 0.58 0.58 98 1013.9
20260906014026 23 133 0.0 1.6 0.00 0.58 0.58 98 1014.0
20260906013521 23 147 0.0 1.6 0.00 0.58 0.58 98 1013.9
20260906013017 23 146 1.6 1.6 0.00 0.58 0.58 98 1013.6
20260906012512 23 159 0.0 0.0 0.00 0.58 0.58 98 1013.7
20260906012011 23 145 0.0 0.0 0.00 0.58 0.58 98 1013.4
20260906011508 23 145 0.0 0.0 0.00 0.58 0.58 98 1013.6
20260906011008 23 145 0.0 0.0 0.00 0.58 0.58 98 1013.7
20260906010503 23 158 0.0 0.0 0.00 0.58 0.58 97 1013.7
20260906005959 23 158 0.0 0.0 0.00 0.58 0.58 97 1013.8
20260906005458 23 158 0.0 0.0 0.00 0.58 0.58 97 1013.8
20260906004957 23 158 0.0 0.0 0.00 0.58 0.58 96 1013.7
20260906004457 23 158 0.0 0.0 0.00 0.58 0.58 96 1013.8
20260906003952 23 158 0.0 0.0 0.00 0.58 0.58 96 1013.8
20260906003447 24 158 0.0 0.0 0.00 0.58 0.58 95 1013.7
20260906002942 24 159 0.0 0.0 0.00 0.58 0.58 95 1013.9
20260906002442 24 137 0.0 0.0 0.00 0.58 0.58 95 1014.0
20260906001937 25 147 0.0 0.0 0.00 0.58 0.58 94 1013.9
20260906001433 25 152 0.0 0.0 0.00 0.58 0.58 93 1013.8
20260906000928 25 152 0.0 0.0 0.00 0.58 0.58 92 1013.9
20260906000425 25 152 0.0 0.0 0.00 0.58 0.58 91 1014.0
20260905235919 25 158 0.0 0.0 0.00 0.58 0.58 91 1014.0
20260905235418 25 159 0.0 0.0 0.00 0.58 0.58 90 1014.0
20260905234913 25 156 0.0 1.6 0.00 0.58 0.58 91 1014.0
20260905234408 27 158 0.0 0.0 0.00 0.58 0.58 89 1013.8
20260905233903 27 158 0.0 0.0 0.00 0.58 0.58 86 1013.8
20260905233358 28 158 0.0 0.0 0.00 0.58 0.58 84 1013.7
20260905232857 29 158 0.0 0.0 0.00 0.58 0.58 81 1013.4
20260905232354 29 161 0.0 0.0 0.00 0.58 0.58 79 1013.7
20260905231849 29 162 0.0 0.0 0.00 0.58 0.58 78 1013.2
20260905231349 28 153 0.0 0.0 0.00 0.58 0.58 80 1013.4
20260905230847 28 140 0.0 0.0 0.00 0.58 0.58 77 1013.2
20260905230344 29 147 0.0 1.6 0.00 0.58 0.58 78 1013.2
20260905225843 31 135 1.6 1.6 0.00 0.58 0.58 73 1013.3
20260905225338 31 159 0.0 0.0 0.00 0.58 0.58 72 1013.6
20260905224833 31 165 0.0 1.6 0.00 0.58 0.58 78 1013.4
20260905224329 30 165 0.0 0.0 0.00 0.58 0.58 77 1013.7
20260905223824 30 153 0.0 0.0 0.00 0.58 0.58 74 1014.0
20260905223322 28 151 0.0 0.0 0.00 0.58 0.58 81 1013.7
20260905222816 29 145 0.0 1.6 0.00 0.58 0.58 79 1013.8
20260905222315 30 148 0.0 0.0 0.00 0.58 0.58 78 1013.8
20260905221811 28 175 0.0 1.6 0.00 0.58 0.58 78 1013.7
20260905221308 28 138 0.0 1.6 0.00 0.58 0.58 77 1013.7
20260905220803 29 174 0.0 1.6 0.00 0.58 0.58 78 1013.9
20260905220259 29 178 0.0 1.6 0.00 0.58 0.58 78 1013.9
20260905215758 28 166 0.0 0.0 0.00 0.58 0.58 77 1013.9
20260905215254 27 185 0.0 1.6 0.00 0.58 0.58 81 1013.9
20260905214750 26 155 0.0 0.0 0.00 0.58 0.58 84 1014.0
20260905214246 25 153 0.0 0.0 0.00 0.58 0.58 91 1014.1
20260905213741 25 126 0.0 0.0 0.00 0.58 0.58 91 1014.0
20260905213237 25 154 0.0 0.0 0.00 0.58 0.58 93 1014.2
20260905212732 25 156 0.0 0.0 0.00 0.58 0.58 92 1014.2
20260905212231 24 141 0.0 1.6 0.00 0.58 0.58 90 1014.2
20260905211730 24 153 0.0 0.0 0.00 0.58 0.58 89 1014.2
20260905211226 24 148 0.0 0.0 0.00 0.58 0.58 90 1014.5
20260905210723 24 146 0.0 1.6 0.00 0.58 0.58 92 1014.3
20260905210222 24 157 0.0 0.0 0.00 0.58 0.58 94 1014.2
20260905205721 24 174 0.0 3.2 0.00 0.58 0.58 94 1014.2
20260905205216 24 168 0.0 1.6 0.00 0.58 0.58 93 1014.3
20260905204716 24 158 0.0 0.0 0.00 0.58 0.58 94 1014.2
20260905204211 25 191 0.0 1.6 0.00 0.58 0.58 95 1014.5
20260905203706 25 160 0.0 0.0 0.00 0.58 0.58 93 1014.5
20260905203201 25 161 0.0 1.6 0.00 0.58 0.58 91 1014.7
20260905202656 25 164 0.0 0.0 0.00 0.58 0.58 93 1014.6
20260905202151 25 174 1.6 3.2 0.00 0.58 0.58 93 1015.2
20260905201647 26 171 0.0 1.6 0.00 0.58 0.58 94 1015.1
20260905201147 26 147 0.0 0.0 0.00 0.58 0.58 93 1015.1
20260905200642 26 147 0.0 0.0 0.00 0.58 0.58 92 1014.9
20260905200137 26 145 0.0 0.0 0.00 0.58 0.58 92 1015.3
20260905195636 26 157 0.0 0.0 0.00 0.58 0.58 91 1015.0
20260905195131 26 152 0.0 0.0 0.00 0.58 0.58 89 1014.9
20260905194626 26 148 0.0 0.0 0.00 0.58 0.58 89 1014.9
20260905194125 26 138 3.2 3.2 0.00 0.58 0.58 89 1015.0
20260905193620 25 128 3.2 3.2 0.00 0.58 0.58 89 1015.1
20260905193115 25 140 0.0 3.2 0.00 0.58 0.58 87 1015.1
20260905192611 25 138 0.0 1.6 0.00 0.58 0.58 90 1015.2
20260905192107 25 358 3.2 3.2 0.00 0.58 0.58 94 1015.1
20260905191606 25 318 1.6 3.2 0.00 0.58 0.58 94 1014.8
20260905191105 25 148 0.0 0.0 0.00 0.58 0.58 92 1014.8
20260905190603 25 122 1.6 3.2 1.37 0.58 0.58 89 1015.4
20260905185601 28 159 0.0 4.8 1.37 0.25 0.25 81 1016.4
20260905185056 28 26 3.2 6.4 0.36 0.05 0.05 77 1015.5
20260905184550 30 117 0.0 4.8 0.18 0.03 0.03 74 1015.5
20260905184049 31 130 1.6 3.2 0.00 0.00 0.00 68 1015.4
20260905183549 32 347 1.6 3.2 0.00 0.00 0.00 66 1015.2
20260905183040 32 193 1.6 3.2 0.00 0.00 0.00 67 1015.0
20260905182538 32 148 1.6 3.2 0.00 0.00 0.00 63 1015.0
20260905182033 33 164 0.0 0.0 0.00 0.00 0.00 66 1014.8
20260905181528 33 151 1.6 1.6 0.00 0.00 0.00 59 1014.9
20260905181027 33 122 1.6 3.2 0.00 0.00 0.00 58 1015.0
20260905180521 33 156 1.6 6.4 0.00 0.00 0.00 62 1015.1
20260905180017 34 1 1.6 3.2 0.00 0.00 0.00 57 1014.9
20260905175516 35 166 0.0 1.6 0.00 0.00 0.00 58 1014.8
20260905175012 35 164 0.0 1.6 0.00 0.00 0.00 55 1014.9
20260905174507 35 271 3.2 4.8 0.00 0.00 0.00 57 1015.0
20260905174003 35 145 0.0 1.6 0.00 0.00 0.00 58 1015.2
20260905173459 35 115 0.0 3.2 0.00 0.00 0.00 60 1015.4
20260905172954 35 147 0.0 4.8 0.00 0.00 0.00 59 1015.4
20260905172452 35 127 3.2 4.8 0.00 0.00 0.00 56 1015.3
20260905171948 35 180 1.6 3.2 0.00 0.00 0.00 58 1015.1
20260905171444 35 164 1.6 4.8 0.00 0.00 0.00 57 1015.3
20260905170940 34 53 1.6 12.9 0.00 0.00 0.00 58 1015.5
20260905170436 35 164 0.0 3.2 0.00 0.00 0.00 55 1015.5
20260905165936 35 343 8.0 9.7 0.00 0.00 0.00 54 1015.7
20260905165431 34 178 0.0 4.8 0.00 0.00 0.00 56 1015.7
20260905164926 34 168 0.0 3.2 0.00 0.00 0.00 58 1015.8
20260905164425 34 149 3.2 4.8 0.00 0.00 0.00 57 1015.8
20260905163920 35 171 1.6 3.2 0.00 0.00 0.00 56 1016.0
20260905163417 33 72 3.2 3.2 0.00 0.00 0.00 58 1016.1
20260905162913 33 279 3.2 6.4 0.00 0.00 0.00 59 1015.9
20260905162409 33 149 1.6 1.6 0.00 0.00 0.00 61 1016.1
20260905161903 34 193 3.2 3.2 0.00 0.00 0.00 56 1016.0
20260905161403 33 346 3.2 3.2 0.00 0.00 0.00 57 1016.0
20260905160901 33 190 1.6 3.2 0.00 0.00 0.00 62 1016.2
20260905160354 33 223 1.6 4.8 0.00 0.00 0.00 62 1016.2
20260905155849 34 117 0.0 1.6 0.00 0.00 0.00 61 1016.2
20260905155349 33 141 1.6 3.2 0.00 0.00 0.00 65 1016.1
20260905154848 33 158 0.0 1.6 0.00 0.00 0.00 68 1016.2
20260905154344 33 216 1.6 1.6 0.00 0.00 0.00 65 1016.4
20260905153839 32 152 1.6 3.2 0.00 0.00 0.00 68 1016.3
20260905153336 31 164 1.6 3.2 0.00 0.00 0.00 67 1016.4
20260905152835 31 234 1.6 3.2 0.00 0.00 0.00 68 1016.5
20260905152334 31 207 0.0 3.2 0.00 0.00 0.00 70 1016.5
20260905151830 32 151 0.0 1.6 0.00 0.00 0.00 69 1016.5
20260905151325 32 191 1.6 1.6 0.00 0.00 0.00 69 1016.5
20260905150824 31 143 1.6 1.6 0.00 0.00 0.00 68 1016.4
20260905150319 31 153 0.0 1.6 0.00 0.00 0.00 71 1016.4
20260905145817 30 194 1.6 3.2 0.00 0.00 0.00 74 1016.5
20260905145316 30 167 0.0 1.6 0.00 0.00 0.00 73 1016.4
20260905144815 28 142 0.0 1.6 0.00 0.00 0.00 79 1016.5
20260905144311 28 174 3.2 3.2 0.00 0.00 0.00 77 1016.9
20260905143809 28 160 0.0 1.6 0.00 0.00 0.00 75 1016.5
20260905143304 29 173 1.6 3.2 0.00 0.00 0.00 77 1016.9
20260905142803 30 159 0.0 0.0 0.00 0.00 0.00 76 1016.6
20260905142257 30 152 0.0 0.0 0.00 0.00 0.00 74 1016.6
20260905141753 30 157 0.0 1.6 0.00 0.00 0.00 74 1016.7
20260905141249 29 151 0.0 0.0 0.00 0.00 0.00 75 1016.7
20260905140745 29 147 0.0 1.6 0.00 0.00 0.00 78 1017.0
20260905140244 28 163 0.0 3.2 0.00 0.00 0.00 77 1016.9
20260905135743 29 135 1.6 1.6 0.00 0.00 0.00 75 1017.0
20260905135240 29 157 0.0 0.0 0.00 0.00 0.00 77 1016.9
20260905134739 28 142 0.0 1.6 0.00 0.00 0.00 77 1017.0
20260905134238 28 138 0.0 1.6 0.00 0.00 0.00 78 1017.2
20260905133733 28 140 0.0 0.0 0.00 0.00 0.00 77 1016.9
20260905133228 28 147 0.0 0.0 0.00 0.00 0.00 78 1017.0
20260905132727 28 159 0.0 1.6 0.00 0.00 0.00 82 1016.9
20260905132223 27 143 0.0 0.0 0.00 0.00 0.00 83 1017.1
20260905131718 27 142 0.0 0.0 0.00 0.00 0.00 86 1017.0
20260905131214 26 133 0.0 1.6 0.00 0.00 0.00 86 1016.9
20260905130714 26 135 0.0 3.2 0.00 0.00 0.00 88 1017.2
20260905130213 26 140 0.0 1.6 0.00 0.00 0.00 89 1017.3
20260905125708 26 140 0.0 3.2 0.00 0.00 0.00 89 1017.1
20260905125203 26 95 0.0 1.6 0.00 0.00 0.00 89 1017.3
20260905124700 26 139 0.0 0.0 0.00 0.00 0.00 88 1017.1
20260905124155 25 140 0.0 1.6 0.00 0.00 0.00 93 1017.0
20260905123650 24 140 0.0 0.0 0.00 0.00 0.00 99 1017.0
20260905123147 23 140 0.0 0.0 0.00 0.00 0.00 99 1017.0
20260905122647 23 140 0.0 0.0 0.00 0.00 0.00 99 1016.7
20260905122142 23 149 0.0 0.0 0.00 0.00 0.00 99 1016.6
20260905121642 22 149 0.0 0.0 0.00 0.00 0.00 99 1016.7
20260905121138 22 147 0.0 0.0 0.00 0.00 0.00 99 1016.7
20260905120637 22 147 0.0 0.0 0.00 0.00 0.00 99 1016.7
20260905120132 22 147 0.0 0.0 0.00 0.00 0.00 99 1016.7
20260905115631 22 147 0.0 0.0 0.00 0.00 0.00 99 1016.5
20260905115126 22 147 0.0 0.0 0.00 0.00 0.00 99 1016.5
20260905114626 22 147 0.0 0.0 0.00 0.00 0.00 99 1016.6
20260905114125 22 147 0.0 0.0 0.00 0.00 0.00 99 1016.2
20260905113620 22 147 0.0 0.0 0.00 0.00 0.00 99 1016.3
20260905113116 22 148 0.0 0.0 0.00 0.00 0.00 99 1016.2
20260905112618 22 148 0.0 0.0 0.00 0.00 0.00 99 1016.2
20260905112111 21 148 0.0 0.0 0.00 0.00 0.00 99 1016.2
20260905111606 21 148 0.0 0.0 0.00 0.00 0.00 99 1016.1
20260905111105 21 148 0.0 0.0 0.00 0.00 0.00 99 1015.9
20260905110604 21 148 0.0 0.0 0.00 0.00 0.00 99 1016.0